Wind_Speed
94 94 91 89 87 85 84 83 83 83 84 86 89 92 95 97 98 98 96 95 93 91 90 88 86 83 80 78 76 74 72 69 65 62 59 56 54 51 50 48 46 45 44
90 87 83 81 78 77 76 76 76 76 77 78 80 84 88 92 96 99 100 99 98 97 95 93 91 88 85 82 79 78 76 73 70 66 63 60 58 55 52 50 48 47 45
82 79 76 74 73 71 71 70 69 69 70 71 72 75 80 84 89 94 98 100 101 101 100 98 96 93 90 87 84 81 79 77 74 70 67 64 61 59 56 53 51 49 47
75 73 72 70 69 68 66 65 64 64 64 64 65 67 71 76 82 87 93 97 101 103 104 103 101 98 95 92 88 85 82 80 77 75 71 67 64 62 59 57 54 52 50
71 70 69 68 67 65 64 63 62 61 60 60 60 60 63 67 73 80 86 92 98 102 105 106 105 103 100 97 93 90 86 83 81 78 75 71 67 65 62 60 57 55 53
69 68 67 66 66 64 63 62 61 60 59 58 57 56 57 60 65 72 79 87 93 99 104 107 108 107 105 102 98 94 90 87 84 81 79 75 71 68 65 63 61 58 56
68 67 66 66 65 64 63 62 61 60 59 58 56 55 54 56 60 65 71 80 88 95 102 107 110 111 109 106 103 99 95 91 88 85 82 79 75 71 68 65 63 61 58
67 66 66 65 64 64 64 64 63 61 59 59 58 55 53 53 57 59 64 72 81 89 96 104 110 112 113 110 107 104 99 95 91 88 85 82 78 75 71 68 66 63 61
66 66 66 65 66 66 65 63 61 59 57 57 58 56 54 53 53 55 60 65 73 82 90 99 107 112 115 114 111 108 104 100 95 92 89 85 82 78 74 71 68 65 63
66 66 66 66 67 67 65 62 59 55 52 51 53 55 55 54 52 52 56 60 65 74 83 92 101 110 115 116 115 112 109 104 99 95 92 88 85 81 78 74 71 67 65
65 66 66 67 68 67 63 58 54 50 47 45 46 50 53 54 53 52 52 56 60 66 76 85 94 103 112 117 117 116 112 108 103 99 95 91 88 84 81 77 73 70 66
65 65 66 67 68 65 59 54 50 45 41 39 39 43 49 52 53 52 50 52 55 60 68 77 86 96 106 114 117 117 115 111 107 103 98 94 91 87 83 79 75 72 68
65 65 66 67 66 62 56 51 46 41 35 31 31 35 42 48 51 51 50 49 51 55 62 70 80 88 98 108 115 117 116 114 110 106 101 97 93 90 86 81 77 75 70
64 65 66 67 65 60 54 48 43 38 32 26 22 25 33 41 47 49 49 48 48 51 56 64 73 81 90 100 109 115 116 115 112 108 104 100 96 92 89 84 79 76 73
64 65 66 66 64 58 52 46 41 36 29 22 15 16 24 33 40 45 46 46 46 48 52 58 67 75 83 92 102 110 114 115 113 110 107 103 99 95 91 87 83 78 73
64 65 65 65 63 56 50 45 39 34 27 19 12 10 17 25 33 39 43 44 44 45 48 54 61 69 76 84 93 103 110 113 113 111 109 105 101 97 94 90 87 82 76
64 64 65 65 62 56 49 44 38 32 26 18 10 5 10 18 26 33 38 40 42 42 44 50 56 63 69 77 86 95 103 109 111 111 110 107 103 100 96 93 89 84 80
63 63 64 64 62 57 50 43 37 31 24 17 9 3 6 13 19 26 32 36 38 40 41 46 52 58 64 71 78 87 96 103 108 110 110 108 105 101 98 95 92 87 82
62 62 63 63 61 57 51 44 37 31 24 16 9 2 4 9 15 22 27 31 34 37 39 42 48 53 59 65 72 80 88 97 103 107 109 108 106 102 100 96 93 91 86
61 61 62 62 61 58 51 45 38 31 24 17 10 4 3 8 13 18 23 27 31 33 36 40 44 50 55 61 66 73 81 91 97 103 106 107 106 103 100 97 93 91 89
60 60 60 60 60 58 53 46 39 32 24 17 11 5 2 6 11 15 20 24 27 30 33 37 42 46 52 57 62 68 76 84 92 98 103 105 104 102 99 96 94 91 89
58 59 59 59 59 57 53 47 41 33 26 19 12 7 3 5 9 13 17 21 24 27 30 35 39 44 49 54 58 64 71 80 87 94 99 102 102 100 98 94 93 91 89
57 57 57 58 58 57 54 49 43 37 29 21 14 8 4 4 7 11 15 19 21 24 27 32 37 41 46 52 55 60 66 74 82 89 94 98 100 99 97 93 91 89 88
56 55 56 56 56 56 54 51 45 40 33 25 17 10 6 3 6 9 13 17 20 22 26 30 35 39 44 49 53 57 62 68 77 84 90 93 96 94 93 90 88 86 84
55 54 54 55 55 55 54 52 47 42 37 29 21 14 8 4 4 7 11 15 17 21 24 29 33 38 42 47 51 54 58 64 72 78 84 89 91 91 88 87 86 83 80
54 54 53 53 53 53 53 51 49 44 39 33 25 18 11 6 3 5 9 13 15 19 23 27 32 36 41 45 49 52 55 60 67 74 79 85 87 87 84 82 81 81 79
Wind_Direction
302 300 299 297 294 291 287 284 280 276 273 269 265 261 258 254 250 246 242 239 237 235 233 232 231 230 229 229 229 228 228 227 226 224 223 221 221 221 221 221 221 221 221
305 303 301 299 296 293 290 286 283 278 274 269 265 260 256 253 250 246 242 238 235 233 232 231 229 228 227 227 227 227 227 226 225 224 223 222 221 221 220 221 220 220 221
308 306 304 302 299 297 294 290 286 282 277 272 266 261 256 252 248 245 241 238 234 232 230 229 228 227 226 225 225 225 225 225 224 223 222 222 221 221 220 220 220 220 219
311 310 308 306 303 300 297 293 288 284 279 274 268 263 257 251 247 243 240 236 233 230 228 227 226 225 225 224 224 224 224 223 223 223 222 221 221 221 220 220 219 219 218
315 314 312 309 307 303 299 295 290 285 280 274 269 263 258 252 246 242 238 235 231 228 227 225 224 224 223 222 222 222 222 222 222 222 221 220 220 220 220 219 219 218 217
318 317 315 312 309 306 302 297 292 286 280 274 268 263 258 253 247 242 237 233 230 226 224 223 222 221 221 221 220 220 220 220 220 220 220 219 219 219 220 220 219 218 217
321 319 317 315 312 309 304 299 293 287 280 274 268 261 257 253 248 243 238 233 229 226 222 220 220 219 219 219 219 218 218 218 219 219 219 218 218 218 219 219 220 219 218
323 322 320 317 315 311 307 302 295 288 280 273 267 260 253 250 247 243 239 234 230 225 222 219 217 217 216 217 217 217 216 216 217 217 217 217 217 217 218 219 220 220 219
326 324 323 320 318 315 311 306 299 291 282 273 265 257 250 245 245 242 239 235 230 226 223 220 217 215 215 215 215 215 215 215 215 215 216 216 216 216 217 218 219 221 221
328 327 326 324 323 320 316 311 305 297 287 275 263 255 248 242 239 238 238 235 231 227 223 220 218 215 214 213 213 213 214 213 214 214 215 215 215 215 215 217 219 220 221
331 331 330 329 328 325 322 317 312 303 292 279 264 252 245 239 236 234 235 235 231 227 224 221 218 216 214 212 212 212 212 212 212 213 213 214 214 214 214 216 217 219 221
335 335 334 334 333 331 328 325 320 313 302 285 268 252 241 235 232 230 230 232 231 228 224 221 219 217 215 212 211 211 211 211 211 212 212 213 213 214 214 215 216 218 220
340 339 339 339 339 337 335 333 330 325 314 296 273 253 238 232 229 227 226 227 229 228 224 221 219 217 216 213 211 210 209 210 210 210 211 212 212 213 213 214 216 217 219
344 344 344 344 344 343 341 340 338 335 329 314 284 253 235 228 225 224 224 224 225 227 225 221 218 217 216 214 212 210 209 209 209 209 210 211 211 212 213 213 215 217 218
347 348 349 349 349 348 347 346 345 344 340 330 303 256 231 223 221 221 221 221 221 224 225 222 219 217 216 215 213 211 209 208 208 208 209 210 210 211 212 212 214 216 217
350 351 352 353 353 352 351 351 350 351 349 343 325 266 230 220 217 217 218 219 219 221 224 223 219 216 215 214 213 212 209 208 207 207 208 209 210 210 211 211 213 215 216
352 354 355 356 356 356 356 356 355 356 356 354 345 285 226 215 213 214 215 217 218 219 222 222 219 216 214 214 213 212 210 208 207 207 207 208 209 210 211 211 212 214 216
355 356 357 359 360 360 360 360 359 0 0 0 358 326 213 208 210 211 213 215 217 218 220 221 219 215 213 212 211 211 210 208 207 206 207 208 209 210 211 211 212 213 215
357 358 359 1 2 3 3 3 3 3 3 4 5 5 201 202 206 209 211 214 216 217 218 219 219 215 212 211 210 210 210 208 207 206 206 207 208 210 211 211 212 212 214
358 360 1 3 4 5 5 6 6 6 5 5 4 360 216 204 205 208 211 213 215 217 217 217 217 214 211 209 208 208 208 208 206 206 206 206 208 209 211 212 212 213 214
360 1 3 4 6 7 7 7 7 7 7 5 1 347 266 214 209 211 212 213 214 215 215 215 215 213 210 207 206 206 207 207 206 205 205 206 207 209 210 213 213 213 214
1 2 4 5 7 8 9 9 9 8 8 4 360 349 302 235 219 216 214 213 212 214 213 213 213 211 208 205 204 204 205 206 205 204 204 205 207 208 210 212 213 214 215
1 3 4 6 7 8 10 10 10 9 8 5 0 350 322 255 229 221 215 211 211 212 212 211 211 210 207 203 202 202 203 204 205 203 204 204 206 209 210 212 215 215 215
2 3 5 6 8 9 10 11 11 11 10 9 5 356 338 286 240 224 216 211 210 211 210 209 209 207 205 202 200 200 201 202 204 204 203 204 205 207 209 211 215 216 216
2 3 5 7 8 9 11 11 12 12 12 11 9 4 351 320 256 223 213 210 209 209 208 207 206 205 202 200 198 198 199 201 202 203 202 202 203 204 206 210 213 215 216
2 3 5 7 8 9 10 11 13 13 13 12 10 8 5 351 291 227 213 208 207 205 204 204 203 202 200 198 196 196 197 199 201 202 202 201 201 202 203 207 210 212 214
Height
5635 5621 5610 5600 5591 5583 5576 5571 5567 5564 5563 5564 5566 5571 5579 5587 5598 5609 5623 5635 5646 5657 5668 5679 5689 5700 5710 5719 5729 5738 5747 5756 5765 5774 5782 5789 5796 5802 5808 5815 5821 5827 5833
5610 5598 5586 5576 5567 5558 5550 5544 5539 5536 5534 5534 5536 5538 5544 5552 5562 5574 5589 5604 5617 5630 5642 5655 5667 5678 5690 5701 5712 5722 5732 5742 5752 5761 5770 5778 5785 5792 5799 5806 5812 5819 5825
5589 5577 5565 5554 5544 5535 5527 5520 5514 5510 5507 5506 5507 5509 5513 5519 5528 5539 5553 5569 5585 5600 5614 5628 5642 5656 5669 5681 5693 5705 5716 5727 5737 5747 5757 5766 5774 5782 5789 5796 5803 5810 5817
5570 5557 5546 5534 5524 5514 5506 5498 5492 5487 5484 5481 5481 5482 5485 5490 5497 5507 5520 5534 5550 5567 5584 5601 5617 5633 5647 5661 5674 5687 5699 5710 5722 5733 5744 5753 5762 5771 5779 5787 5794 5801 5808
5552 5539 5527 5516 5505 5495 5486 5478 5471 5466 5462 5460 5459 5459 5461 5464 5469 5478 5489 5501 5516 5534 5553 5572 5590 5608 5623 5639 5653 5667 5681 5693 5706 5718 5730 5740 5750 5759 5768 5776 5784 5791 5799
5536 5523 5510 5499 5487 5477 5467 5458 5450 5444 5440 5438 5437 5438 5440 5441 5445 5452 5461 5472 5486 5503 5522 5542 5562 5580 5598 5615 5632 5647 5662 5676 5689 5702 5715 5727 5737 5747 5757 5765 5774 5781 5789
5521 5508 5495 5483 5470 5459 5447 5437 5429 5423 5418 5414 5415 5417 5420 5421 5423 5429 5437 5446 5458 5475 5493 5512 5531 5551 5572 5590 5609 5626 5642 5657 5671 5685 5699 5712 5724 5735 5745 5754 5763 5771 5779
5507 5494 5480 5466 5453 5441 5428 5416 5405 5398 5394 5391 5390 5394 5399 5403 5403 5410 5415 5423 5434 5449 5465 5482 5502 5523 5544 5565 5584 5603 5621 5637 5653 5668 5682 5696 5710 5722 5733 5743 5752 5761 5769
5494 5480 5465 5451 5436 5421 5407 5394 5382 5373 5368 5366 5365 5369 5376 5381 5386 5391 5396 5403 5413 5426 5440 5457 5475 5495 5517 5539 5560 5580 5598 5617 5634 5650 5665 5680 5694 5708 5720 5730 5741 5750 5759
5482 5467 5451 5435 5419 5402 5386 5372 5359 5349 5343 5341 5341 5345 5352 5360 5367 5374 5379 5386 5395 5406 5419 5433 5451 5470 5490 5512 5534 5555 5576 5596 5614 5631 5648 5664 5679 5693 5706 5718 5729 5739 5749
5471 5455 5438 5421 5403 5385 5368 5353 5340 5329 5321 5318 5319 5323 5330 5340 5348 5357 5364 5370 5379 5388 5400 5414 5429 5446 5465 5487 5510 5531 5554 5576 5595 5613 5631 5648 5664 5678 5692 5705 5716 5728 5738
5461 5444 5426 5408 5389 5370 5353 5338 5324 5313 5304 5300 5299 5303 5311 5321 5331 5341 5350 5356 5364 5374 5384 5396 5410 5426 5444 5464 5487 5510 5534 5556 5576 5596 5615 5632 5649 5664 5679 5692 5704 5715 5726
5452 5435 5416 5397 5378 5359 5341 5326 5313 5302 5292 5286 5285 5287 5294 5304 5315 5326 5336 5344 5352 5360 5369 5380 5393 5408 5425 5444 5466 5490 5514 5536 5558 5578 5598 5616 5633 5649 5665 5678 5691 5703 5715
5444 5426 5407 5388 5369 5350 5334 5319 5306 5295 5285 5278 5275 5277 5283 5291 5302 5313 5324 5333 5341 5349 5357 5367 5379 5393 5408 5427 5448 5470 5494 5517 5539 5561 5581 5600 5618 5634 5650 5665 5679 5691 5702
5437 5419 5401 5382 5363 5345 5329 5315 5302 5291 5282 5275 5271 5272 5276 5283 5292 5303 5314 5323 5332 5339 5347 5356 5367 5380 5395 5412 5431 5452 5475 5499 5522 5544 5565 5584 5602 5619 5636 5651 5666 5678 5689
5432 5414 5396 5378 5360 5343 5327 5313 5301 5290 5281 5275 5271 5270 5273 5278 5286 5295 5305 5315 5324 5331 5338 5345 5356 5369 5383 5399 5417 5437 5459 5482 5505 5527 5548 5568 5587 5604 5621 5637 5652 5665 5677
5428 5411 5394 5376 5358 5341 5326 5313 5301 5291 5283 5277 5272 5271 5273 5277 5283 5291 5300 5308 5317 5324 5331 5337 5347 5359 5373 5388 5405 5424 5444 5466 5489 5511 5532 5552 5572 5589 5606 5622 5638 5653 5666
5425 5409 5392 5375 5357 5341 5327 5314 5303 5293 5286 5280 5276 5274 5275 5278 5283 5289 5296 5303 5311 5318 5325 5331 5339 5351 5364 5378 5395 5412 5431 5452 5474 5496 5517 5538 5557 5575 5592 5608 5625 5640 5653
5424 5408 5392 5375 5359 5342 5328 5316 5305 5296 5289 5283 5280 5278 5278 5280 5283 5288 5293 5299 5306 5313 5320 5326 5333 5344 5356 5370 5385 5402 5420 5440 5460 5481 5503 5523 5543 5561 5578 5595 5611 5627 5642
5424 5408 5392 5376 5360 5344 5330 5318 5308 5299 5292 5287 5284 5282 5281 5282 5284 5288 5292 5297 5303 5309 5315 5322 5329 5338 5350 5363 5378 5393 5410 5428 5448 5469 5490 5510 5529 5547 5565 5583 5601 5616 5629
5424 5409 5393 5378 5363 5348 5334 5321 5311 5302 5296 5291 5287 5285 5284 5284 5285 5288 5291 5295 5300 5306 5312 5318 5325 5334 5344 5357 5371 5385 5401 5419 5437 5457 5478 5498 5518 5538 5554 5570 5585 5601 5616
5424 5410 5395 5381 5366 5352 5338 5326 5315 5307 5299 5294 5290 5288 5286 5286 5286 5288 5290 5294 5298 5303 5309 5314 5321 5329 5340 5352 5365 5379 5394 5410 5429 5449 5469 5488 5506 5525 5542 5558 5574 5590 5605
5426 5411 5397 5384 5370 5356 5343 5331 5320 5311 5303 5297 5292 5289 5287 5287 5287 5288 5290 5293 5297 5301 5306 5312 5319 5326 5336 5348 5360 5374 5387 5403 5421 5439 5459 5478 5496 5514 5531 5548 5562 5578 5594
5427 5414 5400 5387 5373 5360 5347 5335 5324 5315 5306 5299 5294 5290 5288 5287 5287 5287 5289 5292 5295 5299 5304 5310 5316 5324 5333 5343 5356 5369 5382 5397 5414 5431 5449 5468 5486 5504 5522 5538 5553 5567 5583
5428 5415 5403 5390 5377 5364 5352 5340 5329 5319 5310 5302 5296 5292 5289 5287 5287 5287 5288 5291 5294 5298 5302 5308 5314 5321 5330 5340 5352 5365 5378 5392 5407 5423 5439 5459 5477 5495 5512 5528 5542 5557 5572
5429 5417 5404 5392 5380 5368 5357 5345 5334 5323 5314 5306 5299 5294 5291 5288 5287 5287 5288 5291 5293 5297 5301 5306 5312 5319 5328 5338 5349 5362 5374 5387 5401 5417 5432 5450 5467 5485 5502 5517 5532 5547 5561